This is the latest recevied weather packets stored in our database for station/object OK1KKY-18. If no packets are shown the sender has not sent any weather packets the latest 10 day(s).
| Time | Temp. | Humidity | Pressure | Rain* | Wind** | Luminosity | Snow |
|---|---|---|---|---|---|---|---|
| 1778045163 | 11.67° C | 84% | 1006.8 hPa | - | - | - | - |
| 1778044564 | 11.67° C | 84% | 1006.9 hPa | - | - | - | - |
| 1778043963 | 11.11° C | 84% | 1006.8 hPa | - | - | - | - |
| 1778043363 | 11.11° C | 86% | 1006.8 hPa | - | - | - | - |
| 1778042763 | 11.11° C | 86% | 1006.6 hPa | - | - | - | - |
| 1778042163 | 11.11° C | 85% | 1006.5 hPa | - | - | - | - |
| 1778041563 | 11.11° C | 86% | 1006.4 hPa | - | - | - | - |
| 1778040963 | 11.67° C | 84% | 1006.5 hPa | - | - | - | - |
| 1778040363 | 11.11° C | 87% | 1006.4 hPa | - | - | - | - |
| 1778039763 | 11.67° C | 89% | 1006.4 hPa | - | - | - | - |
| 1778039163 | 11.11° C | 89% | 1006.4 hPa | - | - | - | - |
| 1778038563 | 11.67° C | 90% | 1006.4 hPa | - | - | - | - |
| 1778037963 | 11.11° C | 90% | 1006.3 hPa | - | - | - | - |
| 1778037366 | 11.11° C | 90% | 1006.4 hPa | - | - | - | - |
| 1778036762 | 11.11° C | 91% | 1006.2 hPa | - | - | - | - |
| 1778036162 | 11.11° C | 91% | 1006.3 hPa | - | - | - | - |
| 1778035562 | 11.11° C | 91% | 1006.3 hPa | - | - | - | - |
| 1778034962 | 11.11° C | 90% | 1006.3 hPa | - | - | - | - |
| 1778034362 | 11.11° C | 91% | 1006.4 hPa | - | - | - | - |
| 1778033762 | 11.11° C | 91% | 1006.2 hPa | - | - | - | - |
| 1778033162 | 11.11° C | 90% | 1006.2 hPa | - | - | - | - |
| 1778032562 | 11.11° C | 89% | 1006 hPa | - | - | - | - |
| 1778031962 | 11.67° C | 87% | 1005.7 hPa | - | - | - | - |
| 1778031362 | 11.67° C | 87% | 1005.5 hPa | - | - | - | - |
| 1778030762 | 11.67° C | 88% | 1005.6 hPa | - | - | - | - |
* Rain since midnight (hover to see other rain measurements)
** Current wind speed in m/s (hover to see current wind gust speed)